Weather History for Concord, NC

Change the Weather History Date:

Sunday, May 25, 2014

  Actual Average (KCLT) Record (KCLT)
Temperature  
Mean Temperature 66 °F 70 °F  
Max Temperature 78 °F 81 °F 95 °F (1953)
Min Temperature 53 °F 59 °F 41 °F (2013)
Degree Days  
Heating Degree Days 0 1  
Month to date heating degree days 49  
Since 1 July heating degree days 3381  
Cooling Degree Days 0 6  
Month to date cooling degree days 87  
Year to date cooling degree days 124  
Growing Degree Days 16 (Base 50)    
Moisture  
Dew Point 54 °F    
Average Humidity 72    
Maximum Humidity 94    
Minimum Humidity 39    
Precipitation  
Precipitation 0.00 in 0.11 in 2.24 in (1939)
Month to date precipitation 2.49  
Year to date precipitation 16.27  
Snow  
Snow 0.00 in 0.00 in 0.00 in ()
Month to date snowfall 0.0  
Since 1 July snowfall 4.3  
Snow Depth -    
Sea Level Pressure  
Sea Level Pressure 30.19 in    
Wind  
Wind Speed 1 mph (SSW)    
Max Wind Speed 7 mph    
Max Gust Speed -    
Visibility 10 miles    
Events      
T = Trace of Precipitation, MM = Missing Value Source: NWS Daily Summary

Daily Weather History Graph

Daily Weather History Graph

Search for Another Location

Airport:

Trip Planner

Search our weather history database for the weather conditions in past years. The results will help you decide how hot, cold, wet, or windy it might be!

Date:

Astronomy

May. 25, 2014 Rise Set
Actual Time 6:12 AM EDT 8:27 PM EDT
Civil Twilight 5:43 AM EDT 8:56 PM EDT
Nautical Twilight 5:07 AM EDT 9:32 PM EDT
Astronomical Twilight 4:29 AM EDT 10:11 PM EDT
Moon 4:08 AM EDT (5/25) 5:33 PM EDT (5/25)
Length of Visible Light 15h 13m
Length of Day
14h 15m
Waning Crescent, 10% of the Moon is Illuminated
May 25
Waning Crescent
May 28
New
Jun 5
First Quarter
Jun 13
Full
Jun 19
Last Quarter

Hourly Weather History & Observations

Time (EDT) Temp. Dew Point Humidity Pressure Visibility Wind Dir Wind Speed Gust Speed Precip Events Conditions
12:15 AM 59.0 °F 51.8 °F 77% 30.16 in 10.0 mi Calm Calm - N/A   Clear
12:35 AM 60.8 °F 51.8 °F 72% 30.16 in 10.0 mi Calm Calm - N/A   Clear
12:55 AM 59.0 °F 51.8 °F 77% 30.16 in 10.0 mi Calm Calm - N/A   Clear
1:15 AM 59.0 °F 51.8 °F 77% 30.16 in 10.0 mi Calm Calm - N/A   Clear
1:35 AM 59.0 °F 51.8 °F 77% 30.16 in 10.0 mi Calm Calm - N/A   Clear
1:55 AM 57.2 °F 51.8 °F 82% 30.16 in 10.0 mi Calm Calm - N/A   Clear
2:15 AM 55.4 °F 50.0 °F 82% 30.16 in 10.0 mi Calm Calm - N/A   Clear
2:35 AM 55.4 °F 51.8 °F 88% 30.15 in 10.0 mi Calm Calm - N/A   Clear
2:55 AM 55.4 °F 50.0 °F 82% 30.15 in 10.0 mi Calm Calm - N/A   Clear
3:15 AM 55.4 °F 50.0 °F 82% 30.15 in 10.0 mi Calm Calm - N/A   Clear
3:35 AM 53.6 °F 50.0 °F 88% 30.15 in 10.0 mi Calm Calm - N/A   Clear
3:55 AM 53.6 °F 50.0 °F 88% 30.15 in 10.0 mi Calm Calm - N/A   Clear
4:15 AM 53.6 °F 50.0 °F 88% 30.16 in 10.0 mi Calm Calm - N/A   Clear
4:35 AM 53.6 °F 51.8 °F 94% 30.16 in 10.0 mi Calm Calm - N/A   Mostly Cloudy
4:55 AM 55.4 °F 51.8 °F 88% 30.16 in 10.0 mi Calm Calm - N/A   Overcast
5:15 AM 55.4 °F 51.8 °F 88% 30.17 in 10.0 mi Calm Calm - N/A   Overcast
5:35 AM 55.4 °F 53.6 °F 94% 30.17 in 10.0 mi Calm Calm - N/A   Mostly Cloudy
5:55 AM 55.4 °F 51.8 °F 88% 30.18 in 10.0 mi Calm Calm - N/A   Scattered Clouds
6:15 AM 55.4 °F 51.8 °F 88% 30.19 in 10.0 mi Calm Calm - N/A   Scattered Clouds
6:35 AM 55.4 °F 53.6 °F 94% 30.20 in 10.0 mi West 3.5 mph - N/A   Scattered Clouds
7:55 AM 60.8 °F 55.4 °F 82% 30.22 in 10.0 mi Calm Calm - N/A   Mostly Cloudy
8:55 AM 66.2 °F 55.4 °F 68% 30.23 in 10.0 mi Calm Calm - N/A   Scattered Clouds
9:55 AM 73.4 °F 53.6 °F 50% 30.24 in 10.0 mi Calm Calm - N/A   Scattered Clouds
10:55 AM 75.2 °F 53.6 °F 47% 30.24 in 10.0 mi Calm Calm - N/A   Mostly Cloudy
11:51 AM 78.8 °F 53.6 °F 42% 30.23 in 10.0 mi SSE 5.8 mph - N/A   Clear
12:51 PM 78.8 °F 51.8 °F 39% 30.22 in 10.0 mi Calm Calm - N/A   Scattered Clouds
1:53 PM 78.8 °F 51.8 °F 39% 30.21 in 10.0 mi SW 6.9 mph - N/A   Scattered Clouds
2:51 PM 78.8 °F 51.8 °F 39% 30.20 in 10.0 mi South 5.8 mph - N/A   Scattered Clouds
3:57 PM 78.8 °F 53.6 °F 42% 30.19 in 10.0 mi Calm Calm - N/A   Clear
4:50 PM 78.8 °F 53.6 °F 42% 30.17 in 10.0 mi Calm Calm - N/A   Clear
5:55 PM 78.8 °F 55.4 °F 44% 30.17 in 10.0 mi Calm Calm - N/A   Clear
6:51 PM 78.8 °F 55.4 °F 44% 30.16 in 10.0 mi South 5.8 mph - N/A   Clear
7:55 PM 77.0 °F 55.4 °F 47% 30.17 in 10.0 mi South 3.5 mph - N/A   Scattered Clouds
8:55 PM 73.4 °F 57.2 °F 57% 30.18 in 10.0 mi South 3.5 mph - N/A   Scattered Clouds
9:51 PM 68.0 °F 59.0 °F 73% 30.20 in 10.0 mi Calm Calm - N/A   Scattered Clouds
10:15 PM 68.0 °F 59.0 °F 73% 30.20 in 10.0 mi Calm Calm - N/A   Scattered Clouds
10:35 PM 68.0 °F 59.0 °F 73% 30.21 in 10.0 mi Calm Calm - N/A   Scattered Clouds
10:55 PM 66.2 °F 59.0 °F 78% 30.21 in 10.0 mi Calm Calm - N/A   Clear
11:15 PM 64.4 °F 59.0 °F 83% 30.21 in 10.0 mi Calm Calm - N/A   Clear
11:35 PM 66.2 °F 59.0 °F 78% 30.21 in 10.0 mi Calm Calm - N/A   Scattered Clouds
11:50 PM 64.4 °F 60.8 °F 88% 30.22 in 10.0 mi Calm Calm - N/A   Clear
11:55 PM 64.4 °F 59.0 °F 83% 30.22 in 10.0 mi Calm Calm - N/A   Clear